sat.trackr.live / text

‹ back to catalog

STARLINK-32188

NORAD 60365 · 2024-138L

PAYLOAD ACTIVE UNKNOWN

§ Identity

Operator
Country
US
Launch date
2024-08-04
Launch site
AFWTR
Launch vehicle
Mass (kg)
RCS (m²)

Purposes: comms

External: N2YO · Heavens-Above · Gunter

§ Orbital elements

Epoch: 2026-09-21T21:07:04.395936Z

Period
94.01 min
Inclination
53.1595°
Eccentricity
0.0001243
Mean motion
15.31705284 rev/d
Perigee alt
469.9 km
Apogee alt
471.6 km
Semi-major
6,848.9 km
B*
1.9574e-5
RAAN
117.0130°
Arg perigee
88.5321°
Mean anomaly
271.5823°
Rev number
12,068

§ Raw data

STARLINK-321881 60365U 24138L   26264.87991199  .00000242  00000+0  19574-4 0  99982 60365  53.1595 117.0130 0001243  88.5321 271.5823 15.31705284120681

JSON: /api/v1/satellites/60365 · /tle

For live sub-satellite position, see the globe view (requires WebGL).

§ Visibility from observer

Set your observer location to see the next 7 days of passes ≥ 10°. The values pass through the URL so the page stays shareable.

No JS? Fill the form by hand. The geolocation button needs JavaScript.